Wind_Speed
7 8 8 8 8 8 9 9 9 9 9 9 9 10 10 10 10 11 11 10 9 8 7 7 5 2 1 2 4 5 6 5 4 4 3 2 2 3 4 5 6 8 8 9 9 8 5 4 5 1 4 5 3 2 3 4 2 2 2 3 1 3 3 5 7 6 3 2 5 12 17 10 4 10 11 7 7 8 13 18 16 20 26 20 13 9 11 26
8 8 8 8 8 8 9 9 10 10 10 10 10 10 10 10 10 10 10 10 10 8 7 6 6 3 1 3 3 4 6 6 6 5 4 3 2 2 3 4 5 7 8 8 8 9 7 5 4 2 5 5 3 3 3 3 2 2 3 2 3 5 4 5 7 7 3 1 6 13 15 10 6 13 15 6 6 9 10 14 17 18 24 24 20 14 14 26
8 8 8 9 9 9 9 9 10 10 11 11 11 11 10 10 10 10 10 10 10 9 7 5 5 5 2 3 5 5 5 6 7 7 6 5 2 2 2 2 3 5 6 7 8 9 9 7 3 4 5 5 4 4 4 3 1 1 3 1 4 6 3 5 7 9 7 3 5 12 12 10 7 15 16 7 5 8 10 15 17 21 26 26 24 20 19 27
9 9 9 9 9 9 9 10 10 10 11 12 12 12 12 12 12 11 10 10 10 10 9 6 5 5 4 2 4 6 6 6 8 10 8 6 3 2 1 2 1 3 5 6 7 9 10 8 3 5 5 4 3 4 3 4 1 1 3 2 4 4 2 4 6 8 8 4 4 10 9 8 9 15 17 10 5 4 16 26 26 27 29 28 26 24 24 28
10 10 9 9 9 9 9 9 10 10 11 12 12 13 13 13 13 12 12 11 11 10 10 8 5 4 5 3 3 5 4 3 5 11 10 7 5 3 2 2 1 1 3 5 6 8 9 8 3 5 4 3 2 3 1 3 3 2 1 4 3 4 1 2 4 6 9 4 4 9 6 7 10 13 19 17 9 9 20 28 29 29 28 26 26 26 27 31
11 11 10 10 10 9 9 10 10 10 11 11 12 13 14 14 14 14 13 12 12 11 11 10 6 4 4 4 4 5 5 2 3 9 10 9 6 4 3 2 2 1 3 4 6 7 8 7 4 3 4 2 2 2 1 1 3 2 2 5 4 6 1 1 3 5 7 6 6 8 6 8 11 10 18 24 22 21 19 19 21 26 28 25 25 27 29 32
12 12 11 11 11 11 11 11 10 10 10 11 12 13 14 14 14 14 14 13 13 12 11 10 8 5 4 5 4 6 10 9 7 8 10 10 8 6 4 2 3 3 3 3 4 5 6 6 5 4 5 3 2 2 2 0 3 2 1 4 5 6 4 3 5 6 7 8 8 7 6 9 12 7 9 23 32 30 23 16 13 19 25 26 26 29 31 32
13 13 13 12 12 11 11 11 11 11 11 11 12 12 14 15 15 15 14 14 14 13 12 11 9 6 5 6 5 7 11 12 9 10 11 12 9 7 6 4 3 4 3 3 4 4 5 5 5 4 3 2 3 3 1 1 1 2 2 4 5 6 7 6 7 8 8 9 8 6 8 10 12 7 8 24 32 28 27 24 17 15 20 26 29 31 32 33
14 14 14 13 13 12 12 11 11 12 12 11 12 12 14 15 16 16 15 15 14 13 13 12 10 8 6 6 6 6 8 7 7 9 10 12 11 9 7 6 4 4 4 3 4 4 5 4 4 2 3 4 5 3 2 2 1 1 3 4 5 5 6 6 8 10 8 9 7 6 9 10 9 6 14 30 31 25 27 26 24 20 20 26 30 33 34 35
15 15 15 15 14 14 13 13 12 12 12 12 12 12 14 15 16 17 17 16 15 14 14 13 11 8 8 7 4 3 5 4 6 9 10 11 12 10 9 7 6 5 5 4 3 4 4 3 4 3 5 5 5 2 2 2 1 1 3 4 5 5 6 6 9 10 9 9 8 7 7 8 4 1 11 21 19 22 25 23 24 24 23 27 30 34 35 36
16 16 16 16 15 15 15 14 14 13 12 12 12 12 13 15 16 17 17 17 16 15 15 13 11 10 9 8 7 6 6 6 6 7 10 12 12 11 10 9 8 7 6 5 3 4 3 3 3 3 3 3 3 2 2 1 1 1 1 3 4 4 6 7 8 9 7 6 9 8 4 5 2 3 16 19 11 16 21 22 24 25 26 27 31 35 36 38
18 18 17 17 17 17 16 16 16 15 14 13 13 13 14 15 16 17 18 18 18 17 16 13 11 10 9 10 13 11 10 9 8 8 10 11 12 12 11 10 9 7 7 5 4 4 3 3 2 1 2 4 3 2 2 1 2 1 1 2 5 5 3 5 4 5 6 4 5 5 3 6 5 12 24 19 13 16 18 22 25 26 27 28 32 36 38 39
19 19 19 18 18 18 18 18 17 17 16 15 15 15 15 16 16 17 18 18 19 19 16 12 10 10 10 11 12 10 9 10 11 10 10 11 12 12 12 11 10 8 7 6 5 4 4 3 2 0 3 4 3 3 2 1 2 2 2 1 3 6 4 2 0 2 5 4 4 5 4 7 10 22 27 17 16 17 18 23 25 27 28 29 34 37 39 40
21 20 20 19 19 19 19 19 19 19 18 17 17 16 17 18 17 18 18 19 20 18 14 11 9 10 10 11 11 10 10 11 11 11 11 12 12 12 12 11 10 9 8 7 5 4 4 3 2 1 3 3 4 4 1 3 2 1 1 2 2 2 3 4 0 4 4 4 7 6 4 8 8 16 20 18 20 19 21 25 26 28 30 32 35 38 41 41
22 22 21 20 20 20 20 20 20 20 19 18 18 18 18 19 19 19 19 20 20 16 12 11 10 10 10 12 12 11 11 11 13 13 12 13 12 12 12 11 10 9 7 7 6 4 4 3 2 1 3 3 4 4 2 4 3 2 1 3 2 0 4 7 3 8 5 3 7 6 3 10 10 10 12 16 19 20 23 25 26 29 31 33 36 39 42 43
23 23 22 22 22 21 21 21 21 21 20 19 19 18 19 20 20 19 20 21 18 15 13 12 11 9 8 10 10 9 10 11 11 12 13 14 13 12 12 10 9 8 7 7 6 4 3 2 2 2 2 3 3 4 3 4 4 4 1 3 3 2 3 6 3 7 6 2 5 6 3 7 8 5 7 12 17 21 23 25 27 30 32 35 37 40 43 43
24 24 23 23 23 22 22 22 22 22 22 20 20 19 19 20 21 20 19 18 17 16 14 12 10 8 9 10 10 9 10 10 11 12 13 14 14 13 12 10 8 8 7 6 5 4 3 2 3 2 1 2 2 4 3 3 4 3 1 2 4 3 3 4 4 3 3 4 5 5 5 12 13 6 7 11 15 20 24 27 29 31 34 36 38 40 43 44
26 26 25 24 24 23 23 23 23 23 23 22 21 21 21 21 21 20 18 17 17 14 12 10 6 3 8 11 9 8 8 9 10 12 13 13 13 13 12 10 8 7 5 4 5 5 3 1 3 0 2 3 2 5 2 4 4 3 3 3 4 3 3 5 5 2 2 3 5 4 7 16 18 15 16 16 16 22 28 30 31 32 34 35 37 40 43 45
29 28 27 26 25 25 24 24 24 24 24 22 21 22 22 21 19 18 15 14 12 7 5 8 8 3 4 7 8 10 11 11 10 11 13 13 12 12 11 9 8 6 3 2 3 4 3 1 2 1 1 2 4 6 8 8 7 6 6 4 4 4 5 6 5 4 2 2 7 8 10 15 17 17 17 19 19 26 33 30 29 32 32 33 36 40 43 46
31 31 30 29 27 26 25 25 25 24 24 23 22 21 18 13 10 10 11 12 12 11 12 12 12 12 12 13 14 14 14 14 12 12 12 12 12 10 9 8 6 4 3 3 2 2 3 2 4 6 7 8 9 9 6 5 6 5 4 4 5 5 7 6 3 4 1 2 9 8 9 14 17 15 17 20 17 23 30 24 27 32 31 32 36 41 45 47
31 32 32 31 30 28 27 26 26 25 24 23 22 18 13 8 5 7 10 13 15 17 19 20 19 21 22 21 21 19 16 14 13 14 13 12 11 8 7 6 4 2 2 3 3 2 3 4 10 9 9 7 6 6 6 5 5 4 5 4 4 4 7 6 1 4 1 2 6 5 6 15 17 14 17 18 12 20 27 22 28 34 30 32 36 42 45 45
28 31 32 32 32 30 28 27 26 25 23 22 19 16 13 11 10 11 11 11 17 19 19 22 24 26 27 27 27 24 17 12 13 16 15 14 14 10 7 5 4 3 1 3 4 1 1 7 12 8 8 6 4 5 6 6 5 3 4 2 4 3 5 6 3 4 1 2 5 6 8 17 18 15 18 19 19 27 29 25 33 35 29 33 38 41 43 42
24 27 29 30 31 30 27 26 26 25 22 20 17 14 13 12 11 12 9 7 14 19 18 20 22 25 27 26 26 23 18 14 13 17 18 17 16 12 9 7 4 3 1 4 6 3 3 8 8 7 11 8 5 4 6 5 3 2 3 3 4 3 1 4 3 3 1 2 4 7 10 15 16 14 15 18 23 29 31 29 35 34 30 36 39 39 40 41
23 24 25 27 28 27 24 24 24 23 22 18 16 15 12 11 9 10 9 5 7 12 14 17 18 22 24 21 20 20 19 17 13 12 17 20 16 10 9 7 5 3 4 7 9 7 8 6 3 8 7 7 6 3 5 5 2 3 5 6 6 4 5 6 3 3 2 1 2 6 10 11 7 8 10 7 9 18 25 26 29 32 34 36 36 37 39 41
23 23 24 24 26 23 19 20 20 20 20 16 14 13 9 8 7 8 7 3 4 7 9 12 14 17 19 16 15 14 13 15 15 11 12 19 18 9 5 7 6 5 6 7 7 7 9 5 8 8 3 5 6 4 5 7 3 4 6 10 10 7 6 3 3 4 4 3 3 5 8 8 1 3 7 4 2 8 12 15 21 27 30 31 34 37 39 40
23 23 22 23 24 19 14 13 14 16 15 13 12 10 7 6 5 6 4 2 3 5 4 6 7 8 10 10 11 10 4 7 13 15 12 16 20 11 4 5 4 3 6 7 4 4 4 1 5 6 5 5 4 5 6 7 5 2 4 7 8 5 3 1 2 2 0 3 3 4 2 9 3 3 6 5 6 9 8 10 18 23 24 28 33 36 37 38
21 21 21 22 22 17 10 10 11 11 10 10 11 9 6 4 2 3 4 3 5 5 5 6 6 6 7 8 13 11 2 3 6 12 16 16 17 13 6 4 2 2 5 5 2 3 2 4 4 5 6 5 4 6 6 9 7 3 3 4 6 6 5 4 3 1 3 2 4 0 3 8 9 6 6 6 9 12 11 13 17 19 23 28 31 32 31 33
20 20 18 19 20 16 9 10 12 9 9 8 7 9 6 5 5 3 2 4 5 3 4 4 5 7 7 10 16 10 1 3 4 7 15 15 15 11 6 7 6 4 4 5 4 4 3 5 5 7 5 4 6 5 7 11 5 4 3 5 6 6 5 4 4 2 2 3 4 4 4 5 11 5 1 1 6 10 12 15 15 15 21 26 27 26 25 26
18 17 14 16 19 15 9 10 12 10 10 8 7 8 7 7 5 4 2 5 3 2 2 4 5 5 6 10 13 9 2 1 1 6 11 12 13 7 2 6 7 4 2 2 5 4 2 4 6 8 6 6 5 1 3 8 4 4 6 6 6 5 5 4 3 3 1 1 7 8 8 5 11 4 4 3 3 9 11 13 13 13 18 23 22 21 20 22
18 16 14 16 18 15 9 9 12 11 10 10 9 9 9 8 4 1 5 6 2 1 3 5 5 5 7 7 5 7 4 1 2 8 7 6 9 5 2 4 4 4 0 4 3 4 2 2 1 4 5 5 6 4 3 3 4 8 6 5 6 5 4 3 1 3 1 5 8 9 13 10 9 3 7 4 5 8 9 8 10 11 16 21 20 17 17 18
20 18 16 18 18 15 10 8 12 13 13 13 11 11 10 5 4 4 8 4 1 1 3 3 3 5 8 5 2 3 2 1 3 9 5 2 5 3 3 4 2 3 2 5 4 4 2 2 2 3 6 8 8 5 5 5 5 6 4 4 3 4 3 4 3 3 1 7 5 4 9 10 10 6 4 6 6 7 8 8 9 8 14 20 18 16 15 15
21 20 18 18 20 19 13 10 12 14 15 14 14 14 9 1 2 5 4 1 1 4 4 3 1 3 5 2 1 3 2 2 4 6 4 3 4 4 4 4 5 2 3 5 4 4 2 4 2 2 5 7 6 5 3 3 2 4 4 5 3 3 3 3 3 1 3 8 3 2 3 5 12 10 6 8 10 10 11 11 12 10 14 20 17 15 15 15
21 20 19 17 17 16 13 12 13 15 16 17 16 12 7 2 7 5 4 3 3 2 2 2 1 2 4 2 2 3 3 3 4 4 2 3 3 5 5 4 6 2 3 4 1 2 3 4 2 3 3 8 10 5 3 2 3 5 5 5 3 1 1 3 4 2 5 7 2 3 3 4 9 7 11 17 17 18 19 19 20 17 19 21 18 17 18 19
22 20 20 16 14 13 11 14 15 15 17 19 15 7 4 7 6 6 8 8 3 1 2 3 3 2 3 2 4 4 3 3 5 5 2 3 3 5 6 6 6 2 2 3 1 3 4 7 4 6 2 9 12 6 4 6 5 5 4 5 5 5 4 5 4 4 7 6 3 1 2 4 4 3 9 13 14 20 26 26 23 22 26 25 23 23 24 24
22 20 19 17 16 15 10 16 18 15 18 19 11 3 7 10 3 4 7 6 2 0 1 2 4 3 2 3 3 4 5 5 3 6 4 5 5 5 5 7 9 6 4 3 3 3 4 8 5 1 1 8 8 3 5 8 3 2 3 4 3 5 5 3 3 4 1 5 5 3 4 6 4 2 4 3 5 14 23 23 19 24 32 28 25 28 28 28
23 22 20 21 20 15 11 17 18 16 19 16 7 6 11 7 3 5 5 6 5 5 4 1 3 4 4 3 3 5 4 3 2 4 4 4 4 6 5 5 10 12 9 7 3 3 2 6 2 2 2 4 4 2 3 3 3 3 2 3 4 4 5 2 3 1 4 3 7 2 5 10 6 5 5 4 5 11 13 12 13 23 29 23 22 30 31 29
25 24 23 27 25 16 14 18 16 16 18 12 6 10 8 3 6 7 5 6 5 7 7 3 4 6 5 4 5 6 4 2 3 3 4 3 4 7 7 5 9 16 18 12 4 3 3 4 3 3 2 3 2 2 2 2 4 6 4 5 3 2 3 3 2 3 2 4 6 4 9 15 12 8 0 5 8 13 11 9 11 18 21 19 24 32 31 28
27 24 27 33 27 17 18 19 17 18 14 8 10 13 4 3 8 7 7 7 4 6 7 7 6 6 7 6 4 5 6 4 4 4 4 4 4 6 8 5 8 18 24 17 4 2 4 4 5 2 1 1 1 2 2 2 2 5 3 3 3 3 2 2 2 3 4 4 6 11 15 16 15 8 2 6 12 14 12 11 10 12 15 18 26 32 30 28
26 22 27 33 27 20 22 21 21 20 12 6 12 12 4 4 7 9 15 12 4 5 7 8 7 4 5 7 4 4 7 7 7 5 4 4 5 5 9 7 8 14 21 18 7 2 3 4 4 1 2 1 2 2 6 3 1 2 1 1 2 2 4 3 3 3 3 3 5 13 16 14 11 6 8 11 13 12 11 11 10 12 16 21 27 30 28 26
28 18 19 25 19 20 25 25 24 18 8 7 11 7 2 3 7 14 24 18 5 5 6 5 6 5 4 6 3 4 6 5 6 5 4 5 4 4 8 8 5 4 8 10 6 0 3 3 5 1 3 1 3 6 8 9 7 4 3 3 2 1 2 1 2 3 4 4 3 6 12 16 7 8 10 11 11 11 12 11 9 11 18 25 28 29 26 25
30 14 11 16 15 24 31 25 17 11 5 7 9 4 2 4 6 11 21 20 9 5 5 4 7 6 5 5 3 4 5 3 6 5 4 5 5 5 10 14 9 8 6 3 3 4 3 3 5 3 2 5 6 4 2 4 8 9 8 8 8 6 4 1 4 2 3 4 5 4 10 19 6 7 5 7 7 9 11 11 9 11 21 27 28 27 25 23
25 10 9 14 20 33 36 18 10 10 7 8 8 6 6 6 5 6 12 15 10 4 3 3 6 7 5 5 4 5 6 4 6 7 5 6 8 7 9 14 16 15 10 4 3 3 3 2 3 5 6 5 4 2 0 2 5 6 5 6 7 6 6 6 8 5 2 2 2 4 6 18 6 7 3 6 7 9 13 13 10 13 22 26 25 25 22 20
26 14 9 15 27 41 33 9 7 9 6 8 8 6 6 4 3 5 8 11 8 5 5 5 5 7 7 5 5 5 7 6 6 7 5 5 9 9 8 15 18 13 6 2 1 2 3 2 3 6 6 3 4 3 2 2 3 3 4 4 6 8 9 8 6 3 3 5 3 4 6 19 9 5 4 5 6 9 12 13 13 14 19 22 21 20 18 19
29 21 14 17 28 39 26 6 7 10 8 9 9 9 8 5 5 8 6 8 9 6 7 7 6 7 7 4 6 7 7 7 6 7 7 7 6 7 11 21 21 11 6 6 6 9 6 2 4 4 6 5 4 3 3 4 1 4 4 5 8 11 10 4 1 1 3 6 8 5 10 19 11 2 4 3 5 7 7 11 15 15 17 19 19 18 20 23
20 14 14 22 34 38 25 10 4 6 12 15 12 12 10 7 9 14 11 10 11 6 4 6 6 7 6 4 5 8 8 9 8 5 7 8 3 1 12 26 25 15 9 7 9 14 9 4 7 7 9 11 11 8 3 2 2 3 2 6 11 15 15 8 3 6 8 6 10 8 15 20 17 11 9 9 11 12 9 9 13 16 18 20 21 24 27 28
14 9 8 18 33 38 33 24 11 3 8 14 10 9 12 10 8 11 13 11 12 7 2 2 3 5 6 6 6 9 11 11 9 7 7 6 3 1 7 21 22 13 6 5 12 14 4 3 10 14 15 14 15 14 6 7 5 5 7 11 14 18 19 12 7 10 8 5 7 18 24 22 21 23 24 20 20 20 15 9 10 14 20 24 27 31 31 29
11 9 7 11 18 23 26 26 18 7 4 8 6 4 12 14 7 5 10 11 13 13 6 3 5 7 7 10 11 13 14 12 10 13 14 8 4 3 1 7 11 9 3 3 10 10 2 4 13 17 20 19 20 20 9 8 7 10 10 13 16 17 18 16 16 17 8 5 13 24 23 18 20 26 29 27 27 24 16 13 14 18 23 27 29 31 28 27
11 10 16 18 12 7 13 21 23 18 11 8 8 6 9 12 10 9 10 7 8 14 10 5 10 15 15 15 13 10 10 9 9 15 15 9 5 1 2 1 4 5 3 1 3 4 2 7 14 16 19 19 19 21 11 6 8 10 9 14 18 17 18 20 22 22 16 14 19 20 16 15 21 29 29 27 26 20 15 20 24 24 26 26 26 27 25 25
14 9 16 24 16 10 20 30 26 22 18 12 9 10 12 16 18 14 8 3 3 11 14 11 15 22 22 18 12 7 7 9 12 14 11 8 6 3 2 4 2 1 2 2 2 3 3 7 12 12 13 14 16 18 10 5 11 14 12 16 20 17 17 19 23 27 28 26 22 19 17 18 24 28 24 25 29 23 20 28 33 32 32 31 31 29 26 28
24 16 15 20 18 16 23 25 17 13 16 15 11 12 16 19 20 14 8 10 10 8 13 20 22 19 16 15 12 13 17 18 16 14 8 6 6 4 4 5 2 1 1 2 2 2 4 7 9 6 7 12 17 18 10 9 16 17 16 24 26 15 11 18 25 26 25 22 20 20 20 19 24 24 19 25 33 28 23 28 34 37 37 34 34 32 29 32
36 33 24 14 10 14 17 14 11 9 10 12 12 15 16 18 22 18 12 17 19 10 11 21 24 13 8 12 16 20 26 24 20 20 14 8 7 7 5 5 5 4 2 3 2 2 4 5 4 3 6 12 17 16 11 10 11 12 19 29 27 14 12 20 24 20 16 15 17 19 17 18 21 18 14 19 21 17 17 22 27 33 34 31 32 34 34 36
34 35 31 18 8 11 14 10 9 11 9 11 16 19 18 20 22 18 12 14 21 23 20 20 19 12 6 11 21 30 34 31 30 34 27 14 9 12 12 10 9 8 5 4 2 3 4 3 4 5 7 12 16 13 5 4 4 9 16 21 20 17 19 23 24 21 15 11 12 16 16 19 21 17 16 19 14 10 14 21 26 29 29 31 34 35 36 37
Wind_Direction
360 0 359 360 0 360 358 356 355 354 355 357 359 1 2 6 12 16 17 21 25 25 17 14 16 359 237 179 164 169 176 179 177 167 152 138 110 100 88 69 54 41 32 26 26 17 11 353 330 289 183 168 144 113 87 40 77 121 96 105 200 181 197 194 184 195 170 190 188 178 180 170 171 184 180 186 198 198 192 199 205 206 215 223 220 227 209 198
350 352 352 354 353 353 352 349 347 345 345 346 348 349 350 352 356 1 6 7 11 18 15 5 4 358 275 227 205 191 193 199 202 195 182 170 141 114 99 80 58 42 33 23 21 12 12 356 334 150 168 160 125 110 111 32 56 93 106 101 244 195 209 208 188 198 191 358 178 177 182 184 196 185 180 190 200 185 187 207 214 218 221 224 226 226 208 200
340 344 347 348 349 349 349 347 344 341 340 339 339 340 341 341 342 347 351 354 356 2 8 2 350 349 331 245 230 221 216 223 226 214 193 183 166 135 120 103 68 43 28 18 19 9 6 4 23 140 157 145 120 121 102 38 65 127 105 108 247 211 230 222 208 213 220 294 169 172 185 194 207 187 184 193 184 182 206 212 211 222 224 222 223 220 208 201
331 335 339 343 346 348 348 348 345 342 340 337 335 335 336 335 334 334 337 341 342 346 354 357 345 336 332 278 239 236 238 253 245 221 198 190 180 159 148 135 93 39 23 12 14 11 4 8 57 138 142 124 105 131 87 28 91 192 124 173 236 196 210 220 224 224 223 275 184 168 170 198 206 189 190 182 158 215 229 223 221 230 230 220 216 213 207 204
322 327 331 336 341 345 347 348 346 345 342 339 336 333 332 331 329 327 328 330 330 334 341 347 345 326 322 306 257 242 240 298 244 209 201 200 188 186 181 167 182 22 14 4 7 11 6 13 73 133 125 107 68 104 28 20 113 117 201 252 234 168 160 226 215 209 214 244 183 163 161 200 193 193 202 190 189 233 236 237 235 238 237 228 222 216 208 205
316 320 324 330 335 339 342 343 344 345 343 340 336 332 330 328 327 324 323 324 322 325 332 339 340 322 312 307 283 240 218 267 225 199 205 206 199 204 202 208 216 256 342 356 2 3 7 24 67 129 107 81 63 101 12 329 167 161 275 275 222 185 214 255 201 207 215 215 189 179 194 202 183 209 219 207 221 236 240 250 243 239 238 234 228 219 212 209
309 313 318 324 329 334 338 339 338 339 340 338 335 331 328 326 325 322 321 321 318 320 326 330 332 322 304 300 294 252 241 255 250 223 221 214 211 217 214 232 231 242 303 343 342 346 4 26 59 109 106 88 169 160 47 71 178 146 232 260 212 207 249 259 224 224 218 214 215 201 207 209 197 221 231 223 235 240 241 249 246 240 233 227 223 219 218 216
302 306 311 318 324 329 333 334 333 334 335 334 332 328 325 323 322 320 320 319 317 317 319 321 323 317 303 296 290 268 259 261 255 241 230 219 220 224 227 238 239 252 278 319 320 329 356 22 61 99 123 108 162 173 80 116 143 100 167 225 206 219 246 251 240 234 230 226 227 216 223 231 223 233 253 246 248 244 241 243 245 243 228 223 221 219 219 216
297 301 306 311 315 320 324 327 328 328 331 330 329 326 322 320 319 319 319 319 317 315 314 314 314 308 300 294 288 279 269 261 249 240 228 222 225 227 236 242 246 259 265 293 308 315 346 23 49 81 166 149 147 151 108 144 254 151 166 195 199 228 242 242 242 237 240 237 224 218 239 251 244 257 268 259 256 250 244 243 242 241 231 224 221 220 219 217
292 296 300 304 308 312 314 318 321 322 326 326 325 323 320 318 318 317 318 319 316 313 310 308 307 300 292 286 269 259 271 267 250 240 229 226 228 231 237 242 250 257 258 279 295 297 327 9 29 81 142 149 143 138 110 122 232 184 181 198 209 238 247 245 245 242 246 248 233 217 243 263 238 194 263 261 254 245 241 238 239 237 233 228 222 220 219 219
288 292 295 299 302 305 308 312 314 316 319 320 321 319 317 315 315 315 316 317 314 311 309 305 301 293 289 275 236 234 277 281 262 245 233 231 230 233 238 241 249 254 255 271 282 276 297 344 18 83 143 158 139 137 139 126 173 214 224 228 251 272 256 248 250 247 241 253 241 215 247 275 136 173 245 253 252 241 236 234 235 234 233 228 222 221 218 219
283 288 292 295 298 301 304 306 308 311 313 315 316 315 314 311 311 313 314 315 312 310 307 303 296 288 288 272 252 257 279 275 263 254 238 234 234 235 239 242 248 256 261 273 276 263 274 309 343 19 173 167 143 117 132 138 158 156 108 250 301 349 311 249 256 243 207 238 236 182 275 263 196 228 243 248 249 241 233 231 232 231 230 226 222 220 218 220
280 284 288 291 295 297 300 303 305 307 308 310 313 314 312 308 308 310 311 311 310 309 305 298 290 287 284 272 268 270 272 267 261 253 241 236 236 237 239 241 246 256 261 273 277 255 252 278 307 311 147 151 154 143 145 114 139 169 94 90 323 357 342 242 230 193 188 227 200 148 279 253 215 237 243 246 244 233 226 229 230 229 227 225 222 219 219 219
277 279 282 286 289 292 295 298 300 303 305 308 311 314 312 308 307 308 308 308 308 307 302 294 288 286 275 267 275 273 265 265 258 248 242 237 236 238 239 241 248 257 264 274 280 257 241 262 288 187 127 122 139 142 90 25 70 183 65 60 35 2 292 277 220 146 164 226 187 153 276 261 244 247 244 243 241 231 226 230 229 228 227 225 222 220 220 220
273 275 278 280 282 286 289 292 295 298 301 304 307 310 311 309 308 308 307 306 306 303 296 291 287 282 277 273 272 272 267 260 251 245 241 237 238 239 240 243 248 258 266 269 275 262 240 231 218 157 112 121 126 114 5 355 11 27 354 307 339 161 268 297 263 177 191 231 177 163 262 270 271 261 246 238 234 229 229 234 231 229 228 226 223 220 221 222
270 273 275 277 279 281 285 287 290 293 296 300 302 305 308 308 307 307 305 302 300 296 292 288 281 272 276 277 268 266 265 253 248 245 239 238 240 239 241 246 250 259 263 266 270 249 231 210 166 133 122 147 120 88 34 3 341 4 47 255 272 246 280 312 286 207 218 184 184 205 245 279 277 255 236 225 225 227 229 235 234 232 231 227 225 223 222 222
266 268 271 274 276 278 281 284 286 289 292 295 298 299 302 304 305 305 301 296 292 291 291 280 271 269 265 263 260 262 263 255 249 243 239 238 239 239 241 243 247 255 256 258 258 227 219 192 153 151 73 80 87 92 46 334 300 325 8 252 250 237 259 297 304 258 205 172 215 225 233 256 261 261 244 232 233 230 229 236 237 236 235 230 227 224 223 223
265 265 267 269 272 276 278 280 283 285 288 292 295 297 300 303 304 303 295 287 285 289 289 263 241 276 264 249 247 259 269 264 254 244 240 239 238 238 239 242 246 249 246 245 236 206 208 166 133 134 17 27 59 102 153 242 216 228 236 250 273 259 241 250 268 268 140 189 231 205 232 253 262 269 261 252 243 236 238 242 243 241 237 232 227 225 226 225
268 267 266 266 268 271 274 277 280 282 284 287 292 296 300 303 301 296 286 278 272 270 273 232 200 192 253 254 260 270 275 271 259 247 240 238 238 237 236 238 239 230 199 190 213 181 176 90 102 218 240 204 196 169 197 211 177 186 203 198 233 254 258 236 236 250 148 242 255 225 235 254 262 268 265 258 243 240 247 247 245 245 239 232 229 229 229 228
269 269 268 267 266 268 270 273 275 278 282 285 290 297 302 307 305 295 280 270 264 262 266 253 235 242 259 273 276 274 272 264 258 248 240 236 232 233 233 228 225 217 188 175 190 142 127 203 228 221 211 206 211 197 188 177 145 140 149 182 221 233 265 254 234 279 116 218 263 245 244 259 260 263 267 264 247 239 246 244 242 244 238 232 231 233 233 233
269 269 269 269 268 268 269 270 272 274 279 284 291 299 304 302 292 295 292 283 276 269 268 266 259 257 262 267 270 270 266 259 254 242 236 232 219 217 223 208 183 209 238 143 135 99 111 211 238 224 205 198 196 174 135 119 119 117 149 199 250 225 254 267 276 315 355 177 266 285 281 269 262 261 263 260 244 241 241 233 240 244 238 235 235 237 238 238
271 270 269 269 268 268 269 269 270 271 275 280 287 294 295 289 282 288 298 292 282 274 269 267 263 261 263 262 262 262 252 246 246 234 229 223 212 210 201 173 156 197 252 106 121 52 111 238 247 210 156 115 89 123 125 124 122 112 136 168 262 235 266 296 349 354 13 181 271 310 296 274 268 261 256 245 235 250 250 237 244 246 237 236 238 240 240 239
278 275 273 272 269 267 267 267 267 269 271 274 280 285 284 286 285 290 295 285 285 283 271 264 262 261 260 257 255 248 232 232 242 234 227 218 209 207 191 160 151 173 178 173 172 163 204 255 256 168 141 114 80 109 117 108 120 147 147 168 248 241 263 286 309 330 249 188 279 294 281 273 269 258 256 247 238 252 259 252 252 250 241 243 245 245 243 240
284 282 280 277 274 270 266 265 265 266 267 268 273 275 277 280 280 295 299 275 281 285 269 259 256 253 252 250 246 236 226 231 241 233 222 211 197 194 197 170 143 182 216 194 178 189 229 246 145 123 132 123 118 145 140 145 225 242 196 203 234 235 220 236 293 326 313 354 333 311 291 276 263 245 255 264 244 254 258 255 254 249 245 247 249 248 246 244
286 286 286 282 280 277 269 265 264 263 264 264 266 265 267 273 277 302 312 296 277 280 270 256 248 247 244 240 234 221 220 235 238 231 215 204 193 176 179 172 166 214 209 168 159 214 250 221 133 118 98 117 135 190 191 174 205 293 232 216 224 229 232 250 351 4 0 335 330 3 320 288 283 224 255 285 292 257 256 255 253 249 245 243 244 247 246 246
286 286 287 285 285 286 277 266 261 260 259 256 254 251 252 255 275 313 331 21 283 261 237 223 223 229 224 219 207 189 206 254 232 221 207 198 196 181 150 166 173 213 176 144 153 221 259 149 126 132 143 152 177 235 225 172 150 291 250 211 208 200 188 160 44 27 317 266 300 47 321 278 280 192 240 254 256 259 261 265 261 256 249 241 244 249 248 247
288 285 285 285 286 291 285 256 248 250 245 245 241 227 230 225 188 358 4 350 273 219 170 184 185 191 203 189 168 158 194 236 189 200 196 190 194 188 190 190 146 204 174 137 190 236 126 95 82 113 134 158 201 243 222 158 141 240 245 131 139 141 152 165 114 134 234 277 317 331 179 274 278 230 230 233 247 270 275 270 268 260 250 245 248 253 251 251
293 287 286 286 285 292 289 249 238 232 225 230 220 207 202 174 155 78 53 278 268 155 143 173 168 187 195 173 172 172 233 162 141 191 188 184 190 187 215 216 171 187 188 144 205 255 115 147 174 148 136 179 204 239 198 162 152 238 198 114 118 127 136 135 117 181 274 24 301 249 158 266 275 242 284 274 231 263 267 259 262 256 247 246 247 250 253 255
301 293 283 277 279 286 284 245 226 218 217 205 183 189 176 155 148 77 101 245 264 114 147 169 170 190 164 156 189 216 247 141 132 177 174 180 190 182 231 213 165 151 199 165 218 258 86 170 192 150 152 206 206 308 184 174 187 175 141 96 77 72 79 80 112 150 29 333 257 238 166 222 274 218 120 60 202 241 253 254 258 255 249 245 242 245 250 254
306 299 275 266 275 280 274 235 214 209 202 191 183 177 161 149 131 123 229 238 250 147 135 159 181 173 145 143 218 236 212 247 112 144 154 172 185 179 126 163 126 119 310 340 270 253 68 93 188 164 174 172 136 70 45 105 142 136 114 67 52 39 53 50 49 95 24 267 255 232 180 190 272 236 155 180 200 209 222 244 256 257 251 243 238 244 251 254
301 301 279 264 268 270 260 219 204 200 190 186 180 165 158 139 103 200 227 231 265 216 130 166 198 147 155 164 215 211 176 264 166 153 159 149 165 163 123 140 111 86 350 322 287 296 15 122 239 209 166 130 106 71 40 65 114 117 89 67 39 341 9 19 355 57 263 254 258 237 181 187 242 246 184 224 243 220 208 223 239 239 243 241 239 249 258 261
292 300 290 269 264 265 254 222 197 190 188 181 173 163 149 153 238 211 211 87 232 218 164 178 203 155 180 187 188 182 159 223 189 164 168 151 162 188 190 188 164 97 311 250 262 329 292 217 220 169 172 161 124 79 36 17 65 100 92 85 49 325 350 343 300 121 230 255 255 148 156 217 245 247 239 249 257 245 227 222 222 220 239 248 250 257 264 269
282 294 294 279 270 271 251 220 195 186 185 175 172 159 119 221 235 181 163 199 221 218 136 116 95 136 149 136 241 198 161 215 188 164 175 141 169 228 254 231 169 169 257 208 237 338 291 292 149 153 222 190 169 158 198 236 165 158 141 126 142 153 62 277 267 277 268 269 274 136 145 250 268 260 227 226 230 231 232 231 228 233 247 255 258 263 269 272
273 285 291 282 274 275 246 210 194 185 183 174 168 140 126 231 231 140 178 215 227 33 65 85 90 112 146 176 236 200 178 233 169 153 187 136 163 235 245 231 198 154 108 155 176 173 247 287 200 178 207 176 183 197 165 135 147 179 155 141 160 155 174 230 234 249 274 290 294 234 183 223 257 270 217 222 230 230 234 238 238 246 256 259 262 264 267 270
266 276 281 271 263 266 235 200 192 184 181 175 164 152 202 222 203 143 196 204 193 91 55 47 97 117 244 254 269 231 209 239 141 137 187 175 187 209 195 205 196 160 131 172 224 170 222 267 237 182 86 162 178 192 119 113 133 205 126 123 182 177 175 224 218 194 249 316 290 230 223 226 220 274 248 231 238 230 234 240 241 249 254 257 259 260 262 266
261 266 266 257 252 251 216 192 188 186 183 171 162 217 221 223 166 179 195 162 173 157 115 18 104 134 256 267 266 245 205 224 167 154 208 207 215 212 196 207 190 181 181 179 194 171 198 277 284 40 345 180 173 170 135 135 165 165 148 174 206 181 139 156 264 35 66 289 274 234 257 274 280 271 240 176 206 229 233 236 235 242 248 250 252 255 257 260
249 253 254 251 250 244 208 191 188 191 186 170 193 222 219 216 182 180 172 148 157 142 138 212 204 172 216 233 226 212 179 210 190 172 212 219 230 201 195 235 196 189 201 196 203 204 179 269 250 162 211 224 162 111 66 35 127 133 191 208 177 123 99 113 255 347 25 254 272 272 265 278 281 276 277 131 213 238 238 233 234 242 246 246 248 250 252 255
240 249 253 253 252 237 201 189 192 193 180 166 226 235 217 194 200 175 156 156 146 144 164 213 211 178 195 215 224 185 171 194 179 179 207 215 245 188 165 209 200 197 207 203 220 246 171 238 251 164 145 167 72 102 100 6 88 128 193 195 118 142 165 117 165 234 249 238 276 280 274 273 265 251 165 179 214 228 235 234 232 241 243 241 244 247 247 250
236 244 252 254 248 223 197 188 189 189 176 179 227 236 214 196 221 193 178 174 154 166 189 217 218 201 190 190 186 168 183 195 176 182 209 202 237 196 165 193 205 206 207 193 195 249 157 216 249 358 351 29 55 188 189 196 85 72 86 81 60 162 169 167 169 180 205 196 267 284 284 276 255 189 166 203 215 215 225 229 225 232 234 233 239 242 243 250
223 227 251 251 233 200 189 185 183 181 182 213 222 226 189 201 233 213 200 195 177 178 200 215 206 216 213 187 181 181 195 208 181 187 228 205 229 234 193 193 180 184 194 182 196 245 95 215 232 348 339 251 185 207 199 186 171 155 166 175 204 164 120 214 232 124 140 180 230 274 280 274 251 142 165 199 208 207 210 216 217 223 232 234 236 239 246 255
210 216 242 228 197 180 177 175 182 187 206 234 232 234 213 214 223 220 213 211 215 208 190 180 190 207 208 192 203 181 174 208 193 195 241 217 226 247 207 195 166 127 118 131 227 213 149 204 214 194 253 234 223 223 192 179 173 172 185 187 190 180 131 176 250 223 151 193 202 188 265 272 252 118 162 187 187 207 204 207 215 218 227 233 237 243 253 259
198 214 232 197 183 179 174 173 200 205 216 228 229 222 206 211 210 207 211 211 219 236 204 192 200 206 202 190 192 171 168 205 203 200 237 227 220 230 207 188 164 142 135 142 210 191 126 125 212 234 239 238 260 289 302 214 158 158 203 192 177 172 148 178 226 230 158 207 211 114 266 268 255 100 144 174 172 209 207 203 213 220 226 232 241 250 255 254
197 210 212 192 191 182 172 182 223 200 233 244 242 240 215 211 202 190 197 201 205 210 212 218 197 204 223 198 173 182 190 209 203 189 217 239 227 230 204 168 155 144 139 145 155 127 102 110 207 253 276 321 348 353 341 343 94 146 237 182 167 195 195 203 216 185 169 204 181 96 253 262 270 89 146 193 201 226 220 212 219 227 233 238 244 247 248 250
204 209 195 185 191 183 175 201 214 198 232 239 243 251 241 247 227 204 193 196 199 189 203 221 201 206 226 181 175 206 197 206 220 196 207 234 232 219 186 166 164 174 189 184 176 166 167 179 171 222 281 291 297 319 350 336 282 212 230 172 190 213 209 223 17 98 231 198 156 156 245 258 269 102 136 209 245 248 234 220 229 237 241 243 244 248 254 256
200 202 186 182 187 189 196 223 225 207 220 221 231 236 234 257 238 219 212 209 212 193 190 224 203 192 204 166 192 220 199 211 235 214 211 233 246 195 180 179 181 192 207 205 178 166 173 192 171 195 237 239 248 250 228 232 209 216 222 176 197 209 203 205 212 218 230 177 147 196 244 255 267 271 263 261 258 257 244 221 227 239 245 249 253 260 262 259
189 182 175 180 188 199 214 227 239 265 220 218 229 229 224 241 254 229 214 216 227 216 202 265 185 176 199 188 209 232 221 220 226 224 228 226 233 304 192 192 194 197 211 204 173 163 160 207 193 211 227 228 247 252 201 131 154 199 203 194 202 210 206 204 224 231 219 148 183 229 240 253 270 275 274 271 266 266 265 253 241 246 255 260 264 267 266 261
189 192 179 172 189 208 223 228 231 241 220 199 200 214 219 225 254 243 204 210 220 208 213 264 200 195 209 199 212 232 226 219 219 230 240 234 231 292 219 200 215 220 237 203 175 164 127 229 213 223 232 232 247 253 217 150 195 213 198 205 214 211 203 205 225 231 202 156 231 238 241 255 268 268 269 271 271 271 276 277 272 270 271 271 270 269 265 260
200 208 197 191 188 192 212 218 218 219 218 194 193 219 222 219 228 224 205 210 211 197 202 237 217 217 218 207 213 229 225 226 231 233 240 241 231 279 19 253 231 217 207 148 182 165 161 231 228 230 239 241 251 257 237 181 234 236 204 217 225 212 202 208 225 233 221 220 240 244 242 247 254 258 261 266 270 276 284 285 284 282 277 274 272 267 260 258
213 226 210 205 205 192 203 211 210 211 215 208 206 221 225 224 224 216 191 156 219 204 200 217 225 221 221 217 214 221 222 228 234 233 234 230 211 179 229 251 255 195 181 154 210 190 161 239 243 241 254 258 257 259 244 200 251 256 239 239 239 224 209 214 227 234 232 236 249 258 254 248 251 256 260 268 275 284 292 289 287 283 278 277 275 268 261 261
218 222 210 207 215 215 214 216 209 207 214 212 213 221 223 229 229 223 190 181 209 208 195 218 233 223 213 215 210 219 227 226 235 240 217 187 197 183 202 224 183 88 215 185 214 214 193 233 246 256 278 268 262 267 259 227 245 255 255 255 250 234 211 224 234 237 240 248 258 263 264 259 256 258 263 273 278 284 288 283 280 278 278 278 277 273 268 264
228 228 221 215 219 215 217 219 204 204 214 208 214 222 223 228 228 227 221 210 217 216 189 215 234 230 194 201 209 225 230 224 232 239 219 178 185 187 186 199 159 128 206 216 189 196 208 231 253 278 275 263 265 273 264 234 240 252 253 255 254 240 222 236 242 240 241 250 258 262 263 259 261 266 267 266 268 270 271 270 270 274 275 274 272 272 270 267
239 239 236 236 231 201 207 220 207 209 216 205 212 219 220 226 225 224 233 226 222 226 216 211 225 227 193 200 215 227 232 229 234 239 236 230 217 203 202 205 189 171 182 191 170 175 191 214 243 246 252 260 264 265 240 179 225 249 246 249 252 247 243 250 257 254 239 230 247 256 256 259 268 276 271 264 256 243 253 262 266 270 274 273 270 268 269 270
Height
1564 1563 1563 1562 1561 1560 1559 1558 1558 1557 1556 1555 1554 1554 1553 1552 1552 1551 1551 1550 1549 1549 1548 1548 1547 1547 1546 1546 1546 1545 1545 1545 1545 1545 1544 1544 1544 1543 1543 1542 1542 1541 1541 1540 1540 1540 1539 1539 1538 1538 1538 1539 1539 1539 1539 1539 1539 1539 1542 1545 1544 1549 1548 1542 1544 1543 1539 1539 1541 1542 1542 1544 1545 1546 1547 1548 1548 1548 1548 1548 1547 1547 1546 1546 1547 1548 1549 1550
1564 1563 1563 1562 1561 1560 1559 1559 1558 1557 1556 1555 1554 1554 1553 1552 1551 1551 1550 1550 1549 1549 1548 1547 1547 1546 1546 1546 1546 1545 1545 1545 1544 1544 1543 1543 1543 1543 1543 1542 1542 1541 1541 1540 1540 1539 1539 1538 1537 1537 1538 1538 1539 1539 1539 1539 1539 1540 1544 1545 1543 1545 1542 1538 1539 1539 1539 1538 1539 1541 1542 1543 1543 1544 1546 1547 1547 1547 1548 1547 1546 1546 1544 1544 1545 1546 1547 1548
1563 1563 1562 1562 1561 1561 1560 1559 1558 1557 1556 1555 1554 1553 1553 1552 1551 1551 1550 1549 1549 1548 1547 1547 1546 1546 1545 1545 1545 1545 1545 1544 1543 1543 1542 1543 1543 1542 1542 1542 1541 1541 1540 1540 1539 1539 1538 1537 1537 1537 1538 1538 1538 1539 1539 1539 1539 1540 1542 1542 1540 1541 1539 1538 1538 1538 1538 1538 1539 1541 1541 1542 1542 1543 1545 1545 1545 1547 1545 1542 1543 1542 1540 1541 1543 1544 1545 1546
1563 1562 1562 1561 1561 1560 1560 1559 1558 1557 1556 1555 1554 1553 1552 1551 1551 1550 1549 1549 1548 1547 1547 1546 1546 1545 1545 1544 1544 1544 1544 1544 1542 1541 1542 1542 1542 1542 1541 1541 1541 1540 1540 1540 1539 1538 1538 1537 1536 1536 1537 1538 1539 1539 1539 1539 1539 1540 1540 1539 1539 1539 1538 1537 1537 1537 1538 1538 1539 1539 1541 1542 1541 1543 1543 1543 1544 1544 1540 1536 1536 1536 1536 1538 1540 1541 1542 1543
1562 1562 1561 1561 1560 1560 1559 1558 1558 1557 1556 1555 1554 1553 1552 1551 1550 1549 1549 1548 1547 1547 1546 1546 1545 1545 1544 1544 1544 1544 1544 1544 1540 1540 1541 1541 1541 1541 1541 1541 1540 1540 1540 1539 1538 1538 1537 1536 1536 1536 1537 1538 1539 1539 1539 1539 1539 1539 1539 1539 1539 1539 1537 1536 1536 1537 1537 1538 1538 1539 1540 1540 1540 1541 1540 1540 1538 1535 1533 1532 1533 1533 1534 1536 1537 1538 1540 1541
1562 1561 1561 1560 1560 1559 1559 1558 1557 1556 1555 1554 1553 1552 1551 1550 1550 1549 1548 1547 1547 1546 1546 1545 1544 1544 1543 1543 1543 1543 1544 1543 1539 1539 1540 1540 1540 1540 1540 1540 1540 1540 1539 1539 1538 1537 1537 1536 1535 1536 1536 1537 1539 1539 1539 1539 1539 1539 1539 1539 1538 1538 1537 1536 1536 1536 1537 1537 1537 1538 1538 1538 1539 1538 1538 1536 1531 1529 1530 1531 1532 1533 1534 1535 1536 1536 1536 1537
1560 1560 1560 1560 1559 1559 1558 1557 1557 1556 1555 1554 1553 1552 1551 1550 1549 1548 1547 1547 1546 1545 1545 1544 1543 1543 1543 1542 1542 1542 1542 1540 1539 1539 1539 1539 1540 1539 1539 1539 1539 1539 1539 1538 1537 1537 1536 1536 1535 1535 1536 1537 1539 1539 1538 1539 1539 1538 1538 1538 1537 1537 1536 1535 1536 1536 1537 1537 1536 1537 1537 1537 1537 1536 1536 1531 1526 1528 1530 1530 1531 1531 1532 1534 1534 1534 1533 1534
1560 1559 1559 1559 1558 1558 1557 1557 1556 1555 1554 1554 1553 1551 1550 1549 1548 1547 1547 1546 1545 1544 1544 1543 1543 1542 1542 1541 1541 1541 1540 1538 1538 1538 1538 1538 1538 1539 1539 1538 1538 1538 1538 1537 1537 1536 1536 1535 1535 1534 1535 1537 1537 1538 1538 1538 1538 1538 1538 1538 1537 1537 1535 1535 1535 1535 1536 1536 1536 1537 1536 1536 1535 1536 1533 1525 1523 1528 1528 1528 1530 1530 1530 1531 1531 1531 1532 1533
1559 1558 1558 1558 1557 1557 1556 1556 1555 1554 1554 1553 1552 1551 1550 1548 1547 1546 1545 1545 1544 1543 1543 1542 1541 1541 1541 1540 1540 1540 1538 1536 1537 1536 1537 1537 1537 1538 1538 1538 1538 1537 1537 1537 1536 1535 1535 1534 1534 1534 1534 1536 1536 1537 1537 1537 1537 1537 1537 1537 1537 1536 1535 1535 1535 1535 1535 1535 1536 1536 1536 1535 1535 1536 1528 1518 1521 1525 1525 1526 1527 1528 1528 1528 1528 1529 1530 1530
1557 1557 1557 1557 1556 1556 1555 1555 1554 1553 1553 1552 1551 1550 1549 1548 1546 1545 1544 1544 1543 1542 1541 1541 1540 1540 1539 1539 1539 1538 1536 1535 1536 1535 1536 1536 1536 1536 1536 1537 1537 1537 1537 1536 1535 1535 1534 1534 1533 1533 1533 1534 1536 1536 1537 1536 1535 1536 1537 1536 1536 1536 1535 1535 1534 1535 1534 1534 1535 1535 1536 1534 1535 1538 1524 1514 1519 1521 1522 1524 1523 1524 1524 1524 1526 1526 1527 1528
1556 1556 1556 1555 1555 1555 1554 1554 1553 1553 1552 1551 1550 1549 1548 1547 1545 1544 1543 1542 1541 1541 1540 1539 1539 1538 1538 1538 1538 1536 1534 1534 1534 1534 1535 1535 1535 1535 1535 1536 1536 1536 1535 1535 1535 1534 1534 1533 1533 1532 1532 1533 1535 1536 1536 1535 1535 1536 1536 1536 1536 1536 1535 1534 1534 1534 1534 1534 1534 1535 1536 1534 1537 1534 1519 1513 1518 1519 1519 1520 1520 1521 1521 1522 1523 1523 1524 1525
1554 1554 1554 1554 1554 1553 1553 1553 1552 1551 1551 1550 1549 1548 1547 1546 1544 1543 1542 1541 1540 1539 1538 1538 1537 1537 1537 1536 1534 1533 1533 1533 1533 1533 1533 1533 1534 1534 1534 1535 1535 1535 1534 1534 1534 1533 1533 1533 1532 1532 1532 1533 1534 1535 1535 1535 1536 1535 1536 1535 1535 1535 1534 1533 1534 1534 1534 1534 1533 1536 1535 1531 1532 1524 1512 1514 1517 1517 1518 1518 1518 1518 1518 1519 1520 1521 1521 1522
1552 1553 1553 1552 1552 1552 1552 1551 1551 1550 1550 1549 1548 1547 1546 1544 1543 1542 1541 1540 1539 1537 1537 1536 1536 1536 1535 1533 1531 1531 1531 1531 1531 1532 1532 1532 1533 1533 1533 1533 1533 1534 1533 1533 1533 1533 1533 1532 1532 1532 1531 1532 1533 1534 1534 1535 1535 1535 1536 1536 1535 1535 1533 1532 1534 1534 1534 1534 1533 1536 1532 1521 1520 1515 1510 1516 1515 1515 1516 1514 1515 1515 1516 1517 1516 1517 1518 1519
1551 1551 1551 1551 1550 1550 1550 1549 1549 1548 1548 1548 1547 1546 1545 1543 1543 1541 1540 1539 1537 1536 1535 1535 1535 1534 1534 1531 1529 1530 1530 1530 1530 1530 1530 1530 1531 1531 1532 1532 1532 1532 1532 1532 1532 1532 1532 1532 1532 1531 1532 1532 1532 1533 1534 1535 1535 1536 1536 1537 1541 1537 1531 1532 1534 1534 1533 1533 1532 1537 1533 1516 1511 1513 1512 1514 1513 1513 1513 1511 1513 1512 1513 1513 1513 1514 1514 1515
1549 1549 1549 1549 1548 1548 1548 1547 1547 1547 1546 1546 1546 1545 1544 1542 1541 1540 1539 1537 1536 1535 1534 1534 1534 1533 1532 1529 1528 1528 1528 1528 1528 1528 1528 1529 1529 1530 1530 1530 1531 1531 1531 1531 1531 1531 1531 1531 1531 1531 1532 1531 1532 1533 1534 1535 1535 1538 1534 1534 1543 1540 1533 1533 1533 1533 1532 1532 1533 1535 1533 1518 1509 1510 1510 1511 1511 1511 1510 1509 1510 1509 1510 1510 1510 1511 1511 1512
1547 1547 1547 1547 1547 1546 1546 1545 1545 1545 1544 1544 1544 1543 1542 1541 1540 1539 1537 1536 1535 1534 1533 1533 1532 1533 1532 1528 1527 1527 1526 1526 1526 1526 1527 1527 1528 1528 1529 1529 1529 1530 1530 1530 1530 1531 1531 1531 1531 1531 1532 1531 1533 1533 1535 1536 1535 1540 1539 1533 1536 1537 1536 1534 1530 1532 1532 1531 1533 1532 1529 1517 1508 1508 1508 1510 1510 1510 1508 1507 1507 1506 1506 1507 1507 1507 1508 1509
1545 1545 1545 1545 1545 1544 1544 1544 1543 1542 1542 1542 1541 1541 1541 1539 1538 1537 1535 1534 1533 1532 1532 1532 1531 1532 1530 1527 1526 1525 1525 1525 1525 1525 1525 1526 1526 1527 1527 1527 1528 1529 1529 1529 1529 1530 1530 1530 1531 1531 1532 1533 1534 1533 1536 1538 1533 1537 1542 1537 1535 1536 1536 1533 1528 1530 1532 1531 1531 1531 1529 1517 1506 1506 1508 1508 1509 1509 1506 1503 1503 1503 1502 1503 1504 1504 1504 1505
1542 1542 1542 1543 1542 1543 1542 1542 1541 1541 1540 1540 1539 1538 1538 1537 1536 1535 1533 1532 1531 1531 1531 1530 1531 1532 1528 1524 1525 1524 1524 1524 1524 1524 1524 1525 1525 1525 1526 1526 1527 1527 1527 1528 1528 1529 1530 1530 1531 1532 1532 1534 1534 1533 1535 1535 1529 1531 1535 1534 1535 1537 1537 1534 1529 1529 1530 1530 1529 1531 1529 1516 1506 1505 1506 1507 1508 1506 1501 1499 1500 1499 1499 1499 1500 1501 1500 1501
1539 1539 1540 1540 1540 1540 1540 1540 1539 1539 1538 1538 1537 1537 1536 1535 1533 1532 1531 1530 1530 1530 1529 1528 1527 1529 1526 1522 1523 1524 1523 1523 1523 1523 1523 1524 1524 1524 1525 1525 1526 1526 1527 1527 1527 1528 1529 1529 1531 1531 1530 1530 1529 1528 1527 1526 1526 1528 1531 1532 1532 1533 1532 1530 1529 1528 1529 1530 1527 1527 1524 1515 1508 1504 1502 1503 1505 1502 1496 1496 1497 1495 1495 1496 1497 1496 1496 1495
1536 1536 1537 1537 1537 1537 1538 1538 1537 1537 1536 1536 1536 1535 1534 1533 1532 1530 1529 1528 1528 1527 1526 1525 1524 1523 1522 1521 1522 1522 1522 1522 1521 1521 1522 1522 1523 1523 1524 1524 1525 1525 1526 1526 1527 1528 1529 1530 1529 1525 1524 1523 1524 1525 1525 1526 1529 1530 1532 1533 1533 1534 1530 1525 1527 1529 1530 1529 1521 1519 1521 1514 1507 1503 1500 1500 1503 1499 1493 1493 1493 1490 1491 1492 1492 1491 1490 1489
1533 1533 1533 1534 1534 1535 1535 1535 1535 1535 1535 1534 1534 1534 1533 1533 1532 1529 1527 1525 1525 1524 1523 1522 1522 1521 1520 1519 1519 1519 1520 1520 1519 1519 1520 1520 1522 1522 1522 1523 1524 1525 1525 1526 1527 1527 1529 1529 1522 1518 1521 1522 1524 1527 1528 1529 1531 1530 1531 1532 1534 1536 1530 1523 1527 1530 1530 1530 1520 1518 1520 1510 1502 1500 1497 1498 1499 1490 1485 1488 1486 1484 1486 1487 1487 1485 1484 1486
1530 1529 1529 1530 1530 1532 1532 1532 1532 1532 1533 1533 1533 1533 1533 1532 1531 1529 1528 1524 1521 1521 1521 1519 1519 1517 1517 1517 1516 1516 1517 1517 1516 1516 1517 1518 1519 1520 1520 1522 1523 1523 1525 1527 1527 1529 1531 1525 1515 1516 1523 1525 1527 1529 1528 1528 1530 1531 1533 1535 1533 1533 1529 1524 1529 1531 1531 1530 1521 1519 1519 1504 1494 1495 1490 1489 1489 1479 1477 1482 1479 1478 1482 1481 1480 1479 1480 1483
1527 1526 1526 1526 1526 1528 1529 1529 1529 1530 1531 1531 1531 1531 1531 1530 1530 1529 1528 1526 1519 1516 1516 1515 1515 1514 1513 1513 1512 1513 1514 1513 1512 1512 1513 1515 1516 1517 1518 1519 1522 1523 1525 1525 1524 1528 1528 1518 1514 1519 1521 1522 1526 1530 1528 1528 1530 1530 1532 1532 1528 1529 1528 1522 1525 1531 1530 1530 1525 1523 1518 1497 1486 1486 1480 1479 1480 1475 1475 1476 1474 1474 1476 1474 1473 1475 1476 1478
1524 1524 1524 1523 1523 1524 1525 1526 1526 1527 1528 1529 1529 1529 1529 1529 1528 1527 1527 1525 1519 1513 1512 1512 1511 1509 1508 1509 1509 1510 1510 1510 1509 1509 1510 1511 1513 1515 1515 1517 1521 1521 1521 1521 1522 1524 1519 1515 1517 1520 1520 1520 1523 1527 1529 1526 1527 1529 1530 1528 1523 1524 1525 1522 1527 1530 1528 1529 1529 1522 1502 1478 1476 1479 1473 1475 1478 1474 1472 1471 1470 1469 1469 1469 1470 1471 1471 1471
1522 1522 1521 1520 1520 1521 1523 1524 1524 1525 1526 1527 1528 1527 1528 1528 1527 1527 1526 1525 1520 1512 1509 1508 1507 1505 1504 1506 1506 1507 1508 1507 1506 1506 1507 1509 1511 1513 1513 1515 1517 1516 1518 1521 1524 1522 1515 1515 1518 1519 1520 1521 1520 1523 1526 1524 1525 1527 1524 1522 1520 1520 1522 1526 1530 1529 1525 1525 1528 1526 1501 1471 1472 1478 1471 1473 1476 1472 1471 1469 1464 1463 1464 1466 1466 1465 1466 1466
1519 1519 1519 1518 1518 1519 1521 1521 1522 1523 1523 1525 1526 1525 1527 1526 1526 1526 1525 1527 1523 1510 1505 1505 1504 1502 1502 1503 1504 1506 1508 1505 1503 1504 1506 1507 1509 1510 1512 1513 1514 1514 1516 1520 1522 1519 1515 1517 1518 1517 1519 1521 1520 1521 1522 1523 1526 1525 1520 1520 1522 1523 1524 1527 1528 1527 1525 1524 1527 1531 1520 1489 1471 1470 1468 1470 1471 1467 1468 1466 1459 1459 1460 1461 1460 1459 1461 1462
1517 1517 1516 1516 1515 1517 1519 1519 1521 1521 1522 1524 1523 1525 1526 1524 1527 1525 1525 1531 1521 1502 1499 1502 1501 1501 1501 1502 1503 1504 1505 1502 1501 1503 1504 1506 1507 1508 1509 1511 1512 1513 1515 1518 1518 1514 1512 1516 1518 1517 1518 1521 1520 1518 1518 1522 1523 1522 1522 1523 1524 1524 1525 1526 1527 1527 1527 1531 1531 1528 1529 1513 1481 1468 1467 1465 1466 1465 1466 1463 1455 1454 1455 1454 1455 1455 1456 1457
1514 1514 1514 1514 1513 1515 1517 1517 1519 1520 1522 1523 1522 1525 1524 1524 1527 1524 1529 1535 1514 1493 1495 1499 1499 1499 1499 1501 1502 1501 1501 1500 1500 1502 1503 1505 1506 1507 1507 1508 1509 1510 1512 1513 1510 1508 1510 1513 1514 1515 1517 1518 1516 1514 1516 1518 1517 1520 1526 1526 1525 1525 1527 1527 1528 1530 1532 1536 1530 1521 1531 1522 1481 1466 1472 1469 1469 1468 1461 1456 1450 1449 1450 1449 1450 1451 1451 1453
1513 1512 1512 1512 1511 1513 1515 1515 1517 1519 1520 1522 1523 1524 1523 1526 1525 1524 1536 1534 1504 1489 1495 1496 1497 1499 1499 1501 1502 1500 1501 1500 1500 1501 1502 1504 1505 1506 1506 1507 1508 1510 1512 1511 1507 1506 1509 1511 1511 1511 1512 1512 1513 1517 1519 1516 1514 1521 1527 1526 1527 1529 1530 1532 1530 1529 1535 1533 1520 1512 1524 1516 1472 1454 1471 1476 1472 1466 1456 1451 1447 1445 1447 1446 1446 1448 1448 1450
1511 1511 1511 1510 1510 1512 1513 1513 1516 1517 1519 1521 1522 1523 1524 1525 1524 1530 1539 1524 1496 1491 1495 1494 1496 1498 1498 1501 1501 1500 1501 1500 1500 1501 1503 1504 1504 1505 1506 1507 1508 1509 1511 1512 1509 1508 1510 1511 1512 1510 1508 1508 1514 1520 1521 1520 1519 1522 1525 1522 1525 1530 1532 1536 1535 1532 1531 1516 1501 1500 1509 1509 1478 1452 1459 1464 1458 1453 1448 1446 1444 1442 1443 1442 1443 1444 1445 1447
1509 1510 1509 1508 1509 1510 1511 1513 1514 1515 1518 1519 1520 1523 1523 1525 1528 1532 1526 1505 1493 1494 1492 1493 1496 1496 1496 1497 1496 1498 1500 1500 1500 1501 1502 1503 1504 1505 1506 1506 1508 1511 1512 1511 1508 1508 1510 1510 1509 1507 1506 1509 1513 1517 1521 1523 1522 1521 1521 1519 1520 1525 1527 1530 1532 1533 1524 1498 1491 1503 1510 1510 1484 1452 1450 1452 1446 1445 1443 1439 1438 1438 1439 1438 1439 1441 1442 1444
1508 1507 1507 1506 1506 1507 1509 1511 1511 1513 1516 1517 1520 1521 1522 1527 1526 1518 1507 1496 1492 1491 1487 1491 1495 1494 1496 1496 1495 1498 1499 1498 1499 1499 1500 1503 1504 1503 1501 1500 1503 1506 1508 1508 1506 1505 1504 1504 1506 1504 1505 1507 1507 1513 1522 1524 1524 1521 1519 1521 1523 1526 1526 1521 1519 1524 1517 1495 1496 1512 1513 1501 1471 1444 1447 1450 1444 1444 1440 1435 1434 1434 1435 1435 1437 1439 1439 1441
1506 1505 1504 1504 1504 1505 1507 1508 1509 1512 1513 1515 1519 1518 1523 1528 1512 1497 1497 1493 1487 1487 1487 1490 1494 1495 1496 1495 1495 1497 1497 1496 1497 1498 1499 1502 1503 1501 1499 1498 1499 1498 1497 1505 1509 1504 1497 1498 1504 1503 1501 1502 1500 1504 1510 1514 1521 1519 1515 1518 1520 1525 1528 1518 1512 1516 1507 1491 1499 1515 1509 1485 1455 1437 1439 1439 1435 1435 1433 1431 1432 1431 1432 1432 1434 1436 1436 1437
1503 1503 1502 1501 1502 1503 1504 1506 1508 1509 1511 1514 1515 1518 1525 1520 1496 1486 1492 1487 1483 1488 1489 1490 1494 1496 1495 1493 1493 1494 1493 1492 1494 1497 1498 1501 1503 1500 1496 1496 1499 1496 1496 1505 1506 1502 1496 1489 1493 1495 1492 1494 1495 1495 1497 1504 1516 1518 1514 1515 1512 1513 1513 1504 1500 1500 1490 1485 1499 1513 1499 1465 1439 1427 1427 1427 1428 1430 1429 1428 1429 1430 1429 1430 1431 1432 1433 1433
1501 1500 1500 1499 1500 1501 1501 1504 1505 1507 1510 1511 1513 1518 1513 1497 1485 1486 1486 1482 1483 1487 1489 1492 1493 1493 1494 1494 1494 1491 1488 1487 1492 1496 1496 1497 1496 1492 1488 1488 1493 1494 1495 1500 1500 1501 1500 1486 1485 1493 1491 1492 1494 1493 1497 1501 1509 1517 1517 1515 1510 1505 1500 1500 1505 1507 1505 1502 1497 1496 1478 1446 1430 1426 1425 1428 1429 1427 1426 1425 1428 1428 1425 1426 1428 1428 1429 1430
1498 1496 1497 1496 1495 1498 1500 1501 1503 1506 1507 1508 1513 1511 1491 1473 1476 1481 1475 1475 1479 1480 1486 1492 1490 1491 1493 1491 1490 1490 1487 1487 1492 1493 1493 1494 1489 1485 1483 1479 1481 1485 1484 1487 1491 1494 1494 1485 1488 1496 1493 1494 1495 1493 1497 1495 1497 1512 1516 1508 1506 1505 1500 1501 1511 1520 1525 1511 1483 1473 1462 1435 1426 1424 1421 1426 1426 1421 1423 1424 1425 1424 1421 1423 1424 1423 1425 1426
1494 1493 1493 1491 1492 1496 1498 1499 1502 1504 1505 1508 1508 1493 1473 1467 1471 1471 1469 1471 1472 1473 1480 1484 1483 1484 1484 1481 1482 1485 1486 1487 1490 1489 1488 1489 1481 1474 1477 1473 1472 1475 1470 1472 1478 1480 1481 1480 1487 1493 1488 1492 1497 1494 1497 1496 1495 1504 1505 1498 1501 1507 1506 1505 1508 1512 1517 1509 1480 1463 1455 1434 1423 1423 1421 1426 1424 1418 1420 1421 1420 1420 1419 1420 1420 1419 1421 1422
1491 1490 1488 1484 1488 1493 1495 1497 1500 1501 1504 1507 1498 1479 1468 1468 1466 1465 1467 1468 1468 1470 1474 1476 1474 1474 1474 1473 1475 1482 1485 1483 1486 1486 1481 1480 1470 1460 1466 1468 1465 1467 1463 1466 1473 1473 1476 1476 1482 1492 1491 1492 1497 1495 1495 1497 1497 1496 1495 1496 1498 1499 1502 1507 1509 1501 1500 1505 1483 1454 1448 1431 1410 1412 1417 1419 1417 1414 1415 1417 1417 1417 1416 1416 1415 1415 1417 1418
1488 1488 1481 1477 1484 1490 1491 1494 1496 1499 1503 1501 1489 1475 1467 1464 1462 1463 1463 1462 1465 1467 1468 1467 1466 1468 1470 1470 1471 1477 1480 1476 1480 1482 1473 1471 1466 1456 1459 1459 1458 1462 1462 1466 1470 1469 1474 1473 1474 1490 1497 1494 1496 1494 1488 1490 1498 1500 1497 1500 1497 1494 1496 1499 1503 1496 1488 1494 1482 1458 1444 1414 1387 1396 1405 1404 1407 1409 1410 1411 1412 1413 1411 1411 1411 1411 1413 1414
1482 1483 1474 1471 1479 1485 1488 1492 1494 1496 1495 1485 1474 1468 1464 1461 1460 1459 1458 1458 1461 1461 1462 1462 1463 1465 1466 1469 1469 1469 1472 1472 1475 1476 1468 1464 1461 1455 1455 1454 1454 1460 1463 1467 1469 1468 1475 1474 1471 1487 1501 1495 1486 1480 1472 1471 1484 1494 1494 1498 1496 1496 1500 1497 1497 1496 1487 1485 1482 1475 1452 1400 1374 1390 1394 1393 1401 1403 1405 1406 1406 1408 1407 1406 1408 1407 1410 1411
1476 1477 1469 1467 1475 1479 1486 1491 1488 1487 1484 1472 1464 1462 1461 1459 1456 1455 1455 1457 1458 1456 1458 1459 1460 1461 1460 1464 1467 1464 1468 1471 1471 1471 1465 1460 1456 1451 1448 1447 1449 1457 1463 1470 1470 1467 1471 1472 1469 1478 1488 1481 1469 1467 1469 1467 1470 1477 1479 1482 1482 1484 1493 1493 1491 1492 1490 1482 1473 1475 1456 1398 1372 1388 1389 1391 1400 1398 1401 1403 1400 1404 1404 1402 1404 1404 1407 1408
1472 1470 1465 1466 1470 1471 1479 1483 1479 1478 1474 1463 1456 1455 1455 1454 1453 1453 1454 1455 1456 1456 1457 1456 1456 1457 1456 1457 1460 1462 1464 1464 1464 1466 1461 1455 1452 1446 1442 1444 1446 1450 1455 1463 1464 1462 1465 1468 1470 1468 1465 1467 1469 1471 1474 1471 1469 1472 1472 1472 1473 1477 1480 1479 1476 1477 1484 1484 1473 1479 1466 1402 1367 1385 1391 1391 1398 1396 1397 1399 1397 1400 1399 1399 1402 1402 1404 1405
1465 1465 1464 1467 1467 1466 1471 1475 1474 1473 1466 1456 1452 1452 1451 1451 1451 1451 1451 1452 1454 1454 1454 1453 1451 1452 1452 1453 1456 1458 1458 1456 1456 1458 1455 1452 1447 1442 1441 1444 1447 1449 1451 1456 1459 1461 1465 1468 1471 1467 1459 1463 1473 1475 1474 1472 1471 1471 1470 1470 1472 1470 1466 1463 1464 1466 1469 1471 1469 1482 1470 1403 1364 1384 1393 1389 1395 1393 1393 1395 1395 1396 1396 1397 1400 1400 1402 1402
1459 1461 1463 1465 1468 1468 1466 1464 1462 1462 1459 1456 1456 1454 1452 1451 1448 1447 1448 1448 1448 1448 1447 1446 1445 1446 1447 1449 1451 1451 1453 1452 1449 1448 1448 1445 1440 1438 1440 1442 1445 1446 1445 1447 1449 1454 1461 1463 1467 1472 1467 1463 1464 1467 1471 1474 1472 1466 1464 1467 1467 1463 1464 1466 1470 1473 1465 1454 1456 1468 1451 1396 1370 1387 1392 1389 1393 1390 1390 1394 1393 1393 1394 1395 1397 1398 1398 1398
1455 1459 1461 1462 1465 1466 1460 1454 1453 1455 1454 1454 1453 1451 1451 1450 1444 1442 1444 1444 1442 1442 1442 1441 1442 1443 1443 1447 1447 1446 1447 1446 1443 1444 1443 1439 1436 1437 1438 1438 1440 1440 1439 1441 1441 1443 1450 1453 1456 1463 1466 1459 1449 1445 1451 1460 1465 1465 1461 1462 1462 1460 1462 1461 1462 1466 1458 1448 1450 1449 1423 1387 1376 1384 1385 1386 1389 1385 1386 1391 1391 1392 1392 1392 1393 1393 1392 1393
1449 1453 1457 1460 1461 1459 1454 1450 1453 1453 1450 1450 1451 1449 1449 1447 1441 1438 1441 1442 1441 1441 1442 1440 1441 1441 1441 1444 1444 1442 1442 1442 1441 1440 1436 1434 1434 1435 1436 1436 1436 1437 1438 1440 1440 1441 1444 1444 1442 1441 1441 1440 1433 1426 1433 1443 1449 1453 1452 1452 1454 1453 1453 1455 1453 1447 1444 1450 1447 1426 1402 1392 1390 1384 1378 1380 1381 1377 1380 1386 1388 1389 1388 1388 1388 1386 1386 1387
1442 1441 1444 1449 1453 1454 1451 1449 1451 1449 1446 1447 1447 1443 1441 1442 1441 1440 1440 1439 1438 1440 1441 1439 1438 1438 1437 1438 1439 1436 1434 1437 1440 1436 1429 1430 1434 1435 1436 1437 1436 1437 1438 1439 1439 1441 1442 1439 1435 1431 1427 1426 1421 1419 1429 1435 1433 1436 1441 1442 1444 1446 1449 1453 1444 1429 1434 1445 1431 1404 1399 1408 1403 1385 1376 1375 1373 1372 1377 1381 1382 1384 1384 1383 1382 1380 1381 1382
1436 1433 1432 1434 1436 1439 1440 1438 1438 1440 1441 1442 1440 1436 1435 1438 1439 1437 1435 1435 1436 1436 1438 1437 1434 1432 1429 1429 1431 1430 1431 1435 1436 1430 1426 1429 1433 1436 1437 1438 1438 1438 1438 1440 1440 1440 1439 1434 1428 1427 1426 1424 1421 1420 1426 1432 1428 1428 1433 1433 1432 1437 1443 1444 1435 1424 1425 1421 1402 1392 1404 1412 1399 1379 1373 1373 1369 1370 1377 1377 1377 1379 1379 1378 1377 1376 1376 1377
1431 1429 1430 1431 1427 1425 1425 1423 1426 1431 1434 1436 1435 1432 1431 1429 1427 1426 1428 1433 1434 1432 1432 1430 1424 1421 1422 1423 1428 1432 1432 1431 1426 1422 1424 1428 1431 1434 1436 1436 1438 1439 1439 1439 1440 1440 1439 1432 1425 1426 1426 1424 1424 1421 1424 1433 1430 1425 1429 1427 1422 1426 1434 1436 1428 1416 1408 1401 1394 1397 1406 1403 1386 1371 1370 1373 1369 1371 1377 1375 1372 1373 1373 1374 1373 1371 1371 1372
1424 1423 1424 1426 1424 1422 1422 1421 1424 1428 1427 1430 1430 1426 1423 1420 1417 1418 1420 1422 1424 1424 1425 1421 1413 1412 1417 1422 1428 1429 1423 1418 1417 1417 1420 1424 1427 1430 1432 1431 1432 1437 1440 1439 1438 1440 1438 1431 1425 1427 1429 1424 1419 1418 1424 1431 1428 1425 1427 1419 1411 1418 1429 1428 1416 1403 1400 1403 1403 1404 1406 1395 1374 1366 1374 1376 1371 1372 1376 1372 1368 1367 1368 1369 1368 1365 1366 1365
1420 1418 1419 1420 1418 1418 1419 1418 1421 1422 1421 1422 1421 1416 1414 1412 1409 1411 1410 1408 1409 1413 1416 1413 1409 1412 1417 1421 1423 1418 1409 1409 1413 1412 1414 1419 1421 1423 1426 1426 1427 1433 1438 1438 1436 1438 1438 1433 1428 1431 1434 1425 1417 1418 1424 1425 1428 1432 1425 1408 1404 1415 1419 1410 1399 1395 1401 1407 1406 1405 1401 1382 1362 1364 1376 1375 1370 1373 1373 1368 1365 1363 1363 1364 1362 1359 1359 1358
1419 1417 1416 1416 1411 1410 1412 1412 1413 1413 1410 1407 1406 1404 1404 1402 1401 1406 1408 1404 1402 1404 1407 1407 1407 1411 1416 1416 1411 1403 1401 1405 1408 1409 1412 1416 1416 1417 1419 1422 1424 1427 1432 1434 1435 1434 1434 1432 1429 1433 1434 1424 1418 1421 1423 1426 1433 1429 1411 1399 1401 1407 1406 1397 1388 1388 1396 1404 1404 1398 1384 1366 1359 1366 1369 1364 1366 1370 1368 1363 1360 1359 1359 1359 1355 1353 1353 1352